| time (UTC) | temp F | wind direction | speed knots | gust knots | rain 1hr in | rain 24hr in | rain mn in | humidity % | barometer mb |
| 20260504214004 | 71 | 110 | 5.2 | 17.4 | 0.00 | 0.00 | 0.00 | 28 | 1006.9 |
| 20260504213508 | 71 | 86 | 4.3 | 17.4 | 0.00 | 0.00 | 0.00 | 29 | 1007.0 |
| 20260504213010 | 71 | 71 | 3.5 | 17.4 | 0.00 | 0.00 | 0.00 | 29 | 1007.0 |
| 20260504212508 | 71 | 117 | 2.6 | 17.4 | 0.00 | 0.00 | 0.00 | 29 | 1006.8 |
| 20260504212009 | 71 | 113 | 3.5 | 14.8 | 0.00 | 0.00 | 0.00 | 29 | 1006.9 |
| 20260504211508 | 71 | 114 | 7.8 | 14.8 | 0.00 | 0.00 | 0.00 | 29 | 1007.0 |
| 20260504211006 | 71 | 71 | 2.6 | 11.3 | 0.00 | 0.00 | 0.00 | 29 | 1007.0 |
| 20260504210507 | 71 | 86 | 5.2 | 13.9 | 0.00 | 0.00 | 0.00 | 29 | 1007.0 |
| 20260504210025 | 71 | 124 | 4.3 | 13.9 | 0.00 | 0.00 | 0.00 | 28 | 1007.0 |
| 20260504205503 | 71 | 73 | 4.3 | 9.6 | 0.00 | 0.00 | 0.00 | 28 | 1007.1 |
| 20260504205010 | 71 | 71 | 3.5 | 10.4 | 0.00 | 0.00 | 0.00 | 28 | 1007.1 |
| 20260504204517 | 71 | 108 | 2.6 | 11.3 | 0.00 | 0.00 | 0.00 | 28 | 1007.0 |
| 20260504204003 | 72 | 69 | 4.3 | 12.2 | 0.00 | 0.00 | 0.00 | 29 | 1007.0 |
| 20260504203503 | 72 | 102 | 3.5 | 13.0 | 0.00 | 0.00 | 0.00 | 27 | 1006.9 |
| 20260504203023 | 72 | 95 | 5.2 | 13.0 | 0.00 | 0.00 | 0.00 | 28 | 1006.9 |
| 20260504202508 | 72 | 91 | 5.2 | 13.9 | 0.00 | 0.00 | 0.00 | 27 | 1006.9 |
| 20260504202006 | 72 | 136 | 3.5 | 13.9 | 0.00 | 0.00 | 0.00 | 28 | 1006.9 |
| 20260504201512 | 72 | 130 | 2.6 | 13.0 | 0.00 | 0.00 | 0.00 | 28 | 1006.9 |
| 20260504201010 | 72 | 99 | 4.3 | 13.0 | 0.00 | 0.00 | 0.00 | 27 | 1006.9 |
| 20260504200513 | 72 | 92 | 6.1 | 15.6 | 0.00 | 0.00 | 0.00 | 28 | 1007.0 |
| 20260504200010 | 72 | 108 | 7.0 | 15.6 | 0.00 | 0.00 | 0.00 | 27 | 1007.0 |
| 20260504195505 | 72 | 344 | 5.2 | 13.9 | 0.00 | 0.00 | 0.00 | 28 | 1006.9 |
| 20260504195008 | 72 | 70 | 2.6 | 12.2 | 0.00 | 0.00 | 0.00 | 28 | 1007.0 |
| 20260504194515 | 72 | 111 | 7.0 | 15.6 | 0.00 | 0.00 | 0.00 | 27 | 1007.1 |
| 20260504194003 | 72 | 84 | 3.5 | 15.6 | 0.00 | 0.00 | 0.00 | 28 | 1006.9 |
| 20260504193507 | 71 | 65 | 5.2 | 15.6 | 0.00 | 0.00 | 0.00 | 26 | 1007.1 |
| 20260504193023 | 72 | 128 | 2.6 | 10.4 | 0.00 | 0.00 | 0.00 | 27 | 1007.3 |
| 20260504192503 | 72 | 124 | 4.3 | 16.5 | 0.00 | 0.00 | 0.00 | 27 | 1007.0 |
| 20260504192008 | 72 | 170 | 3.5 | 16.5 | 0.00 | 0.00 | 0.00 | 26 | 1007.0 |
| 20260504191528 | 72 | 132 | 2.6 | 11.3 | 0.00 | 0.00 | 0.00 | 26 | 1007.2 |
| 20260504191004 | 72 | 44 | 2.6 | 9.6 | 0.00 | 0.00 | 0.00 | 26 | 1006.9 |
| 20260504190505 | 72 | 99 | 3.5 | 13.0 | 0.00 | 0.00 | 0.00 | 28 | 1007.2 |
| 20260504190021 | 71 | 113 | 5.2 | 13.0 | 0.00 | 0.00 | 0.00 | 25 | 1007.3 |
| 20260504185510 | 71 | 84 | 6.1 | 11.3 | 0.00 | 0.00 | 0.00 | 26 | 1007.3 |
| 20260504185003 | 72 | 127 | 4.3 | 14.8 | 0.00 | 0.00 | 0.00 | 26 | 1007.3 |
| 20260504184518 | 71 | 98 | 3.5 | 14.8 | 0.00 | 0.00 | 0.00 | 27 | 1007.5 |
| 20260504184006 | 71 | 128 | 3.5 | 10.4 | 0.00 | 0.00 | 0.00 | 25 | 1007.5 |
| 20260504183503 | 71 | 90 | 2.6 | 10.4 | 0.00 | 0.00 | 0.00 | 25 | 1007.4 |
| 20260504183012 | 71 | 117 | 4.3 | 13.9 | 0.00 | 0.00 | 0.00 | 26 | 1007.6 |
| 20260504182506 | 71 | 150 | 2.6 | 17.4 | 0.00 | 0.00 | 0.00 | 26 | 1007.7 |
| 20260504182007 | 70 | 116 | 6.1 | 17.4 | 0.00 | 0.00 | 0.00 | 26 | 1007.8 |
| 20260504181508 | 71 | 88 | 5.2 | 15.6 | 0.00 | 0.00 | 0.00 | 26 | 1007.8 |
| 20260504181004 | 71 | 117 | 6.1 | 14.8 | 0.00 | 0.00 | 0.00 | 25 | 1007.8 |
| 20260504180508 | 70 | 221 | 3.5 | 14.8 | 0.00 | 0.00 | 0.00 | 26 | 1007.7 |
| 20260504180013 | 70 | 84 | 6.1 | 14.8 | 0.00 | 0.00 | 0.00 | 26 | 1007.8 |
| 20260504175507 | 70 | 137 | 6.1 | 14.8 | 0.00 | 0.00 | 0.00 | 25 | 1007.9 |
| 20260504175005 | 70 | 58 | 7.0 | 17.4 | 0.00 | 0.00 | 0.00 | 27 | 1007.9 |
| 20260504174524 | 69 | 135 | 5.2 | 17.4 | 0.00 | 0.00 | 0.00 | 27 | 1007.9 |
| 20260504174003 | 70 | 54 | 6.1 | 17.4 | 0.00 | 0.00 | 0.00 | 26 | 1008.0 |
| 20260504173506 | 70 | 22 | 5.2 | 14.8 | 0.00 | 0.00 | 0.00 | 28 | 1007.9 |
| 20260504173024 | 70 | 71 | 7.0 | 14.8 | 0.00 | 0.00 | 0.00 | 27 | 1008.1 |
| 20260504172509 | 70 | 75 | 7.0 | 13.0 | 0.00 | 0.00 | 0.00 | 27 | 1008.0 |
| 20260504172006 | 69 | 110 | 6.1 | 16.5 | 0.00 | 0.00 | 0.00 | 27 | 1008.0 |
| 20260504171524 | 68 | 134 | 7.8 | 16.5 | 0.00 | 0.00 | 0.00 | 27 | 1008.1 |
| 20260504171012 | 68 | 101 | 4.3 | 18.2 | 0.00 | 0.00 | 0.00 | 28 | 1008.3 |
| 20260504170504 | 69 | 89 | 8.7 | 18.2 | 0.00 | 0.00 | 0.00 | 27 | 1008.3 |
| 20260504151006 | 65 | 34 | 5.2 | 20.0 | 0.00 | 0.00 | 0.00 | 34 | 1009.3 |
| 20260504150510 | 64 | 80 | 3.5 | 20.0 | 0.00 | 0.00 | 0.00 | 32 | 1009.5 |
| 20260504141013 | 63 | 119 | 2.6 | 13.0 | 0.00 | 0.00 | 0.00 | 36 | 1009.8 |
| 20260504140506 | 62 | 69 | 6.1 | 13.0 | 0.00 | 0.00 | 0.00 | 35 | 1009.9 |
| 20260504130512 | 59 | 148 | 1.7 | 10.4 | 0.00 | 0.00 | 0.00 | 40 | 1010.7 |
| 20260504110506 | 50 | 73 | 2.6 | 7.0 | 0.00 | 0.00 | 0.00 | 50 | 1010.9 |
| 20260504100503 | 46 | 97 | 1.7 | 3.5 | 0.00 | 0.00 | 0.00 | 55 | 1010.9 |
| 20260504082008 | 45 | 97 | 0.0 | 0.9 | 0.00 | 0.00 | 0.00 | 60 | 1010.9 |
| 20260504081518 | 45 | 98 | 0.0 | 1.7 | 0.00 | 0.00 | 0.00 | 60 | 1010.9 |
| 20260504081007 | 45 | 98 | 0.0 | 1.7 | 0.00 | 0.00 | 0.00 | 59 | 1010.9 |
| 20260504080509 | 45 | 94 | 0.0 | 1.7 | 0.00 | 0.00 | 0.00 | 60 | 1010.9 |
| 20260504050509 | 37 | 108 | 0.0 | 0.9 | 0.00 | 0.00 | 0.00 | 83 | 1010.9 |
| 20260504050020 | 36 | 108 | 0.0 | 0.9 | 0.00 | 0.00 | 0.00 | 84 | 1010.9 |
| 20260504045501 | 36 | 108 | 0.0 | 0.9 | 0.00 | 0.00 | 0.00 | 84 | 1011.0 |
| 20260504045003 | 36 | 108 | 0.0 | 0.9 | 0.00 | 0.00 | 0.00 | 84 | 1011.1 |
| 20260504044516 | 35 | 108 | 0.0 | 0.9 | 0.00 | 0.00 | 0.00 | 84 | 1011.1 |
| 20260504044008 | 35 | 108 | 0.0 | 0.9 | 0.00 | 0.00 | 0.00 | 85 | 1011.1 |
| 20260504043503 | 35 | 108 | 0.0 | 0.9 | 0.00 | 0.00 | 0.00 | 86 | 1011.1 |
| 20260504043010 | 34 | 108 | 0.0 | 0.9 | 0.00 | 0.00 | 0.00 | 85 | 1011.1 |
| 20260504042506 | 34 | 120 | 0.0 | 0.9 | 0.00 | 0.00 | 0.00 | 85 | 1011.0 |
| 20260504042004 | 34 | 120 | 0.0 | 0.9 | 0.00 | 0.00 | 0.00 | 85 | 1011.0 |
| 20260504041507 | 34 | 120 | 0.0 | 0.9 | 0.00 | 0.00 | 0.00 | 84 | 1011.0 |
| 20260504041004 | 34 | 119 | 0.0 | 0.9 | 0.00 | 0.00 | 0.00 | 84 | 1011.0 |
| 20260504040506 | 34 | 120 | 0.0 | 0.9 | 0.00 | 0.00 | 0.00 | 84 | 1010.8 |
| 20260504040007 | 34 | 120 | 0.0 | 0.9 | 0.00 | 0.00 | 0.00 | 83 | 1010.8 |
| 20260504035502 | 34 | 120 | 0.0 | 0.9 | 0.00 | 0.00 | 0.00 | 82 | 1010.7 |
| 20260504035004 | 34 | 120 | 0.0 | 0.0 | 0.00 | 0.00 | 0.00 | 82 | 1010.7 |
| 20260504034504 | 34 | 119 | 0.0 | 0.0 | 0.00 | 0.00 | 0.00 | 82 | 1010.7 |
| 20260504034003 | 34 | 120 | 0.0 | 0.9 | 0.00 | 0.00 | 0.00 | 81 | 1010.6 |
| 20260504033503 | 35 | 120 | 0.0 | 0.9 | 0.00 | 0.00 | 0.00 | 81 | 1010.6 |
| 20260504033027 | 35 | 120 | 0.0 | 0.9 | 0.00 | 0.00 | 0.00 | 80 | 1010.6 |
| 20260504032503 | 35 | 121 | 0.0 | 0.9 | 0.00 | 0.00 | 0.00 | 79 | 1010.4 |
| 20260504032003 | 35 | 121 | 0.0 | 0.9 | 0.00 | 0.00 | 0.00 | 79 | 1010.5 |
| 20260504031516 | 35 | 121 | 0.0 | 0.9 | 0.00 | 0.00 | 0.00 | 78 | 1010.5 |
| 20260504031007 | 35 | 121 | 0.0 | 0.9 | 0.00 | 0.00 | 0.00 | 77 | 1010.6 |
| 20260504030503 | 36 | 121 | 0.0 | 0.9 | 0.00 | 0.00 | 0.00 | 77 | 1010.5 |
| 20260504030015 | 36 | 121 | 0.0 | 0.9 | 0.00 | 0.00 | 0.00 | 77 | 1010.4 |
| 20260504025508 | 36 | 121 | 0.0 | 0.9 | 0.00 | 0.00 | 0.00 | 76 | 1010.4 |
| 20260504025003 | 36 | 121 | 0.0 | 0.9 | 0.00 | 0.00 | 0.00 | 76 | 1010.4 |
| 20260504024512 | 36 | 121 | 0.0 | 0.9 | 0.00 | 0.00 | 0.00 | 75 | 1010.3 |
| 20260504024008 | 36 | 121 | 0.0 | 0.0 | 0.00 | 0.00 | 0.00 | 75 | 1010.3 |
| 20260504023507 | 36 | 121 | 0.0 | 0.9 | 0.00 | 0.00 | 0.00 | 75 | 1010.3 |
| 20260504023008 | 36 | 121 | 0.0 | 0.9 | 0.00 | 0.00 | 0.00 | 74 | 1010.3 |
| 20260504022503 | 37 | 121 | 0.0 | 0.0 | 0.00 | 0.00 | 0.00 | 73 | 1010.2 |
| 20260504022007 | 37 | 121 | 0.0 | 0.9 | 0.00 | 0.00 | 0.00 | 73 | 1010.2 |
| 20260504021505 | 37 | 121 | 0.0 | 0.9 | 0.00 | 0.00 | 0.00 | 73 | 1010.2 |
| 20260504021003 | 37 | 121 | 0.0 | 0.9 | 0.00 | 0.00 | 0.00 | 73 | 1010.2 |
| 20260504020506 | 37 | 121 | 0.0 | 0.0 | 0.00 | 0.00 | 0.00 | 71 | 1010.1 |
| 20260504020025 | 38 | 121 | 0.0 | 0.0 | 0.00 | 0.00 | 0.00 | 71 | 1010.1 |
| 20260504015504 | 38 | 121 | 0.0 | 0.0 | 0.00 | 0.00 | 0.00 | 71 | 1010.0 |
| 20260504015004 | 38 | 121 | 0.0 | 0.0 | 0.00 | 0.00 | 0.00 | 69 | 1009.9 |
| 20260504014521 | 38 | 121 | 0.0 | 0.0 | 0.00 | 0.00 | 0.00 | 69 | 1010.0 |
| 20260504014009 | 39 | 121 | 0.0 | 0.0 | 0.00 | 0.00 | 0.00 | 68 | 1010.0 |
| 20260504013504 | 39 | 121 | 0.0 | 0.9 | 0.00 | 0.00 | 0.00 | 67 | 1009.9 |
| 20260504013016 | 39 | 121 | 0.0 | 0.9 | 0.00 | 0.00 | 0.00 | 66 | 1009.9 |
| 20260504012507 | 40 | 121 | 0.0 | 0.9 | 0.00 | 0.00 | 0.00 | 66 | 1009.9 |
| 20260504012003 | 40 | 121 | 0.0 | 0.0 | 0.00 | 0.00 | 0.00 | 66 | 1009.9 |
| 20260504011512 | 40 | 121 | 0.0 | 0.0 | 0.00 | 0.00 | 0.00 | 64 | 1009.9 |
| 20260504011007 | 40 | 121 | 0.0 | 0.0 | 0.00 | 0.00 | 0.00 | 64 | 1009.9 |
| 20260504010512 | 41 | 121 | 0.0 | 0.0 | 0.00 | 0.00 | 0.00 | 63 | 1009.8 |
| 20260504010009 | 41 | 121 | 0.0 | 0.0 | 0.00 | 0.00 | 0.00 | 63 | 1009.8 |
| 20260504005504 | 41 | 121 | 0.0 | 0.0 | 0.00 | 0.00 | 0.00 | 61 | 1009.6 |
| 20260504005009 | 42 | 121 | 0.0 | 0.0 | 0.00 | 0.00 | 0.00 | 59 | 1009.7 |
| 20260504004504 | 42 | 121 | 0.0 | 0.0 | 0.00 | 0.00 | 0.00 | 60 | 1009.6 |
| 20260504004004 | 42 | 121 | 0.0 | 0.0 | 0.00 | 0.00 | 0.00 | 58 | 1009.5 |
| 20260504003508 | 43 | 121 | 0.0 | 0.0 | 0.00 | 0.00 | 0.00 | 59 | 1009.4 |
| 20260504003023 | 43 | 121 | 0.0 | 0.0 | 0.00 | 0.00 | 0.00 | 59 | 1009.4 |
| 20260504002505 | 44 | 121 | 0.0 | 0.0 | 0.00 | 0.00 | 0.00 | 58 | 1009.4 |
| 20260504002005 | 44 | 121 | 0.0 | 0.9 | 0.00 | 0.00 | 0.00 | 55 | 1009.3 |
| 20260504001519 | 45 | 121 | 0.0 | 0.9 | 0.00 | 0.00 | 0.00 | 53 | 1009.2 |
| 20260504001004 | 46 | 121 | 0.0 | 0.0 | 0.00 | 0.00 | 0.00 | 51 | 1009.2 |
| 20260504000505 | 47 | 121 | 0.0 | 0.0 | 0.00 | 0.00 | 0.00 | 50 | 1009.1 |
| 20260504000020 | 47 | 121 | 0.0 | 0.9 | 0.00 | 0.00 | 0.00 | 47 | 1009.0 |
| 20260503235507 | 47 | 121 | 0.0 | 1.7 | 0.00 | 0.00 | 0.00 | 45 | 1009.0 |
| 20260503235004 | 48 | 121 | 0.0 | 1.7 | 0.00 | 0.00 | 0.00 | 47 | 1009.0 |
| 20260503234518 | 48 | 101 | 0.0 | 0.9 | 0.00 | 0.00 | 0.00 | 46 | 1009.0 |
| 20260503234008 | 49 | 121 | 0.0 | 0.9 | 0.00 | 0.00 | 0.00 | 45 | 1008.8 |
| 20260503233507 | 49 | 149 | 0.0 | 0.9 | 0.00 | 0.00 | 0.00 | 42 | 1008.9 |
| 20260503233012 | 49 | 149 | 0.0 | 0.9 | 0.00 | 0.00 | 0.00 | 42 | 1008.8 |
| 20260503232505 | 50 | 149 | 0.0 | 0.9 | 0.00 | 0.00 | 0.00 | 43 | 1008.7 |
| 20260503232009 | 50 | 167 | 0.0 | 0.9 | 0.00 | 0.00 | 0.00 | 42 | 1008.7 |
| 20260503231510 | 50 | 167 | 0.0 | 0.9 | 0.00 | 0.00 | 0.00 | 41 | 1008.7 |
| 20260503231007 | 51 | 138 | 0.0 | 1.7 | 0.00 | 0.00 | 0.00 | 40 | 1008.6 |
| 20260503230505 | 51 | 138 | 0.0 | 2.6 | 0.00 | 0.00 | 0.00 | 37 | 1008.5 |
| 20260503230025 | 51 | 146 | 0.0 | 3.5 | 0.00 | 0.00 | 0.00 | 39 | 1008.5 |
| 20260503225505 | 51 | 150 | 0.0 | 3.5 | 0.00 | 0.00 | 0.00 | 38 | 1008.4 |
| 20260503225009 | 51 | 165 | 0.9 | 3.5 | 0.00 | 0.00 | 0.00 | 38 | 1008.4 |
| 20260503224523 | 51 | 136 | 0.0 | 3.5 | 0.00 | 0.00 | 0.00 | 38 | 1008.3 |
| 20260503224004 | 51 | 153 | 0.9 | 3.5 | 0.00 | 0.00 | 0.00 | 38 | 1008.3 |
| 20260503223506 | 51 | 155 | 0.0 | 3.5 | 0.00 | 0.00 | 0.00 | 38 | 1008.3 |
| 20260503223024 | 51 | 155 | 0.9 | 7.0 | 0.00 | 0.00 | 0.00 | 37 | 1008.2 |
| 20260503222509 | 51 | 102 | 2.6 | 7.0 | 0.00 | 0.00 | 0.00 | 36 | 1008.2 |
| 20260503222006 | 51 | 155 | 2.6 | 7.0 | 0.00 | 0.00 | 0.00 | 36 | 1008.2 |
| 20260503221518 | 51 | 125 | 3.5 | 11.3 | 0.00 | 0.00 | 0.00 | 35 | 1008.1 |
| 20260503221010 | 52 | 217 | 3.5 | 11.3 | 0.00 | 0.00 | 0.00 | 35 | 1008.1 |
| 20260503220503 | 52 | 178 | 1.7 | 14.8 | 0.00 | 0.00 | 0.00 | 34 | 1008.0 |
| 20260503220017 | 52 | 165 | 3.5 | 14.8 | 0.00 | 0.00 | 0.00 | 34 | 1008.0 |
| 20260503215508 | 53 | 138 | 1.7 | 15.6 | 0.00 | 0.00 | 0.00 | 34 | 1007.9 |
| 20260503215012 | 52 | 151 | 4.3 | 15.6 | 0.00 | 0.00 | 0.00 | 35 | 1007.9 |
| 20260503214513 | 53 | 143 | 2.6 | 6.1 | 0.00 | 0.00 | 0.00 | 34 | 1007.8 |